Overview Statistics Trail Chart Weather Telemetry Raw packets
 

This is the latest recevied weather packets stored in our database for station/object SP5MRF. If no packets are shown the sender has not sent any weather packets the latest 10 day(s).

<< 25 26 27 28 29 30 31 >>
Time Temp. Humidity Pressure Rain* Wind** Luminosity Snow
1788351890 25° C 52% 1014.5 hPa 0 mm - - -
1788351411 25° C 53% 1014.4 hPa 0 mm - - -
1788350930 24.44° C 53% 1014.5 hPa 0 mm - - -
1788350475 24.44° C 53% 1014.8 hPa 0 mm - - -
1788349970 24.44° C 53% 1014.7 hPa 0 mm - - -
1788349491 24.44° C 54% 1014.8 hPa 0 mm - - -
1788348531 23.89° C 56% 1015.1 hPa 0 mm - - -
1788348050 23.89° C 56% 1015.1 hPa 0 mm - - -
1788347570 23.33° C 59% 1015.2 hPa 0 mm - - -
1788347090 23.89° C 59% 1015.2 hPa 0 mm - - -
1788346614 22.78° C 61% 1015.3 hPa 0 mm - - -
1788346130 22.22° C 63% 1015.2 hPa 0 mm - - -
1788345650 21.67° C 65% 1015.4 hPa 0 mm - - -
1788345170 21.11° C 65% 1015.4 hPa 0 mm - - -
1788344690 21.11° C 66% 1015.5 hPa 0 mm - - -
1788344210 21.11° C 66% 1015.5 hPa 0 mm - - -
1788343730 21.11° C 66% 1015.7 hPa 0 mm - - -
1788343250 21.67° C 66% 1015.4 hPa 0 mm - - -
1788342770 21.67° C 65% 1015.5 hPa 0 mm - - -
1788342290 21.67° C 65% 1015.5 hPa 0 mm - - -
1788341810 21.67° C 67% 1015.4 hPa 0 mm - - -
1788341330 21.11° C 67% 1015.4 hPa 0 mm - - -
1788340850 21.11° C 68% 1015.5 hPa 0 mm - - -
1788340370 21.11° C 66% 1015.5 hPa 0 mm - - -
1788339890 20.56° C 68% 1015.4 hPa 0 mm - - -

* Rain latest hour (hover to see other rain measurements)
** Current wind speed in m/s (hover to see current wind gust speed)